Theta_e
337 336 338 345 349 348 347 345 345 344 343 341 338 337 335 333 330 329 327 327 328 326 325 330 334 334 336 337 338 339 340 341 341 342 342 342 341 341 342 341 337 337 340 340 340 341 341 341 340 339 337 337 335 332 332 333 335 337 337 337 336 337 337 336 336 335 335 335 335 334 334 332 332 330 328 328 327 327 327 329 330 330 330 330 331
338 336 336 343 347 348 347 346 345 344 343 341 339 337 336 333 331 329 328 327 328 327 326 332 336 336 338 338 339 340 340 340 339 339 338 338 337 337 336 334 331 330 334 335 336 338 339 340 339 339 338 337 336 336 335 332 335 337 336 337 336 336 336 337 337 335 336 334 333 332 332 331 332 330 327 327 326 326 328 330 330 330 330 330 330
337 336 335 341 346 346 348 346 345 344 343 342 339 337 336 334 331 329 328 327 328 328 327 331 336 336 337 338 338 338 337 336 336 335 334 334 334 333 332 330 329 328 328 328 330 333 337 339 339 339 338 337 336 337 336 332 334 336 335 336 336 336 336 336 337 336 335 332 330 331 331 332 331 328 325 324 324 326 328 330 330 329 330 331 330
336 335 336 340 344 345 347 347 345 344 343 342 339 338 337 334 332 330 328 328 329 329 327 328 332 333 334 334 334 334 333 333 333 331 331 332 334 334 334 333 333 331 327 325 328 332 336 338 338 338 338 337 336 336 336 333 334 334 334 336 336 336 336 336 336 336 334 331 331 330 330 331 330 327 325 325 325 327 328 329 330 330 330 330 331
336 335 336 339 342 344 346 347 346 345 343 341 340 339 337 335 332 330 329 328 329 330 329 327 328 328 330 331 331 331 331 332 331 329 331 335 337 337 338 337 335 332 326 326 331 334 336 338 337 337 336 336 336 335 335 334 334 332 332 335 336 336 336 336 336 334 332 332 333 331 331 331 331 331 330 329 327 328 328 329 330 330 330 330 330
336 335 337 338 340 343 345 347 346 345 343 342 342 340 338 336 333 330 329 328 328 330 330 330 328 327 328 329 331 332 333 332 330 330 333 337 339 340 339 339 337 335 327 327 334 335 336 337 336 336 336 336 336 335 334 333 333 331 331 333 334 335 335 334 333 332 331 332 332 330 331 331 331 330 330 329 328 328 328 329 329 329 329 330 330
335 335 336 336 339 341 343 346 346 346 344 343 343 341 339 337 334 331 330 329 328 330 331 331 330 330 329 329 330 331 333 333 332 333 335 337 340 340 340 339 339 337 331 330 333 334 336 337 335 335 335 335 335 334 333 331 330 330 329 331 333 333 333 333 331 329 329 330 330 330 331 330 328 328 329 330 330 329 329 329 329 329 327 328 329
335 335 335 335 338 340 342 345 346 346 345 344 344 342 340 337 336 333 330 329 328 329 331 332 332 331 332 333 331 331 333 335 335 335 336 337 339 340 339 339 339 338 334 331 331 333 336 336 335 335 335 336 335 334 333 329 328 328 327 329 331 331 331 331 330 328 326 329 331 332 331 329 327 329 330 330 330 330 330 329 329 329 326 326 328
335 335 334 334 336 338 340 343 346 347 346 344 344 343 341 338 338 335 331 330 329 329 332 333 332 333 334 335 335 333 333 335 336 336 337 337 339 339 339 339 338 336 334 332 331 334 336 334 335 335 335 335 334 333 331 328 327 328 328 328 328 328 328 328 327 325 325 328 331 331 331 331 331 331 330 330 331 330 329 328 327 327 326 327 328
335 335 334 334 335 337 339 343 345 346 346 344 344 344 343 339 338 337 333 330 330 330 332 334 333 334 334 335 335 334 334 335 335 336 337 337 337 337 337 338 337 336 334 333 332 333 335 335 335 335 336 335 334 333 331 330 330 331 331 330 328 327 328 327 327 326 325 327 330 332 332 332 332 332 331 330 329 328 327 326 325 324 327 329 328
335 336 335 335 336 336 338 342 343 345 346 345 344 344 344 341 338 338 334 331 331 331 332 334 334 334 334 335 335 334 335 336 336 336 336 335 335 334 335 335 336 335 332 331 332 332 334 335 335 335 335 335 335 334 333 333 333 334 334 334 332 329 328 328 329 329 328 329 331 332 333 332 332 331 330 327 325 326 327 328 325 322 327 329 328
338 337 336 336 335 335 337 341 342 343 345 345 345 344 344 342 340 339 336 332 332 333 332 334 334 334 335 335 336 335 336 338 337 337 337 335 334 333 333 333 333 334 332 330 330 330 332 334 334 335 335 335 334 333 334 334 334 335 335 335 334 332 329 329 330 331 330 330 329 330 331 330 330 331 328 325 327 328 328 328 327 325 326 327 328
340 338 336 335 334 334 336 340 341 341 342 344 345 344 344 343 341 340 339 334 333 334 332 334 335 334 335 335 335 335 336 339 338 338 337 335 333 332 332 332 332 333 333 329 328 329 330 332 334 335 335 334 332 332 333 334 335 334 333 332 332 333 330 328 330 330 330 329 329 329 329 328 330 331 327 327 329 329 328 327 327 326 327 327 326
341 338 335 334 334 335 337 339 340 341 341 343 344 343 344 343 342 340 340 337 334 334 333 334 335 335 335 336 335 334 335 338 338 337 336 334 333 332 332 332 331 332 333 329 327 329 330 330 332 333 333 332 331 332 332 333 333 330 327 328 330 332 331 329 329 329 330 329 329 329 328 328 331 331 328 329 330 328 328 327 327 327 327 327 326
341 338 335 334 335 337 338 340 340 341 342 342 343 343 343 343 343 341 341 338 334 334 334 334 335 335 336 336 335 334 335 337 338 336 335 334 333 333 332 331 330 331 333 331 327 327 328 329 329 331 331 331 331 331 331 330 327 324 324 328 331 332 332 331 329 328 328 330 329 329 329 329 329 330 330 330 330 328 328 326 327 327 326 325 325
340 336 334 335 337 338 339 340 340 340 342 343 343 343 343 343 344 342 341 340 335 334 335 335 335 335 336 336 335 334 335 336 337 336 335 334 333 333 332 330 329 329 331 332 329 327 327 327 327 329 330 330 330 329 327 323 321 322 324 328 333 333 333 332 330 329 328 328 328 328 329 328 328 330 330 330 329 328 327 327 327 326 324 324 326
340 336 333 335 338 338 338 339 339 339 341 343 344 344 344 344 344 343 342 340 337 336 336 335 336 336 335 336 336 335 335 336 336 336 335 334 334 332 331 330 327 327 328 331 331 329 327 325 325 325 325 326 327 325 321 318 321 323 323 327 332 334 332 332 331 329 328 327 327 327 327 327 329 330 330 330 329 327 326 326 326 326 324 325 326
340 335 332 336 338 339 338 338 337 337 340 342 343 343 344 344 343 343 342 342 338 337 337 336 336 336 335 336 336 336 335 337 336 336 336 335 334 332 330 329 326 325 326 328 330 331 329 327 325 323 321 320 319 318 317 319 323 323 325 327 330 333 333 331 331 330 328 327 326 326 325 326 328 330 330 329 328 326 326 326 325 326 325 324 325
339 335 333 336 338 339 338 337 336 336 339 341 343 343 344 344 343 343 343 342 339 339 338 336 337 336 336 337 336 336 336 337 337 337 336 335 334 333 331 330 326 324 324 326 327 330 331 329 327 324 320 318 317 315 318 322 323 323 328 328 328 332 333 332 331 329 328 327 327 325 326 326 327 330 329 327 326 326 327 325 324 325 324 323 324
338 335 334 336 336 337 336 335 335 336 337 341 343 343 344 342 342 343 343 342 340 340 339 337 337 337 337 337 336 336 337 338 337 336 336 335 335 333 332 330 327 325 324 325 325 327 330 331 329 325 321 320 319 318 320 324 323 324 329 329 329 331 332 332 331 329 328 328 327 326 327 326 327 330 328 326 326 326 325 324 323 323 322 323 324
339 337 335 335 334 334 333 333 335 335 336 339 342 342 342 342 342 343 342 341 340 340 340 339 338 338 338 337 337 336 336 338 337 337 335 335 334 333 332 330 327 325 324 324 324 324 326 330 330 327 324 322 321 320 322 324 322 323 329 331 329 330 332 332 331 330 329 328 327 327 327 326 329 330 329 327 326 324 322 323 323 320 319 322 324
339 339 336 335 334 333 333 332 334 334 333 336 340 341 341 342 341 342 342 340 340 340 339 339 339 338 337 337 337 335 335 336 336 336 334 333 332 331 332 332 330 327 325 323 323 322 322 325 329 329 325 324 322 322 323 323 322 323 328 331 330 329 331 332 331 331 329 328 327 327 327 327 329 330 329 328 326 324 323 325 322 318 320 323 324
340 340 338 336 335 334 334 333 333 333 332 333 336 338 339 341 341 341 341 340 340 340 339 339 338 338 337 337 336 334 334 335 335 334 332 331 330 330 331 331 331 329 326 325 322 322 322 321 326 329 327 324 324 323 323 322 321 323 328 330 331 330 330 332 332 330 329 328 327 327 327 328 330 330 329 328 327 326 324 324 321 320 322 321 322
340 340 339 338 337 335 335 334 334 333 332 333 334 335 337 340 341 341 340 340 339 339 339 338 339 338 336 337 336 334 334 334 335 334 332 332 331 331 332 331 331 330 328 327 323 321 322 321 323 328 328 324 324 323 322 322 320 323 327 330 331 331 331 331 331 330 329 327 326 327 327 328 330 330 329 329 328 326 325 325 323 323 322 318 319
339 340 340 339 338 337 336 336 335 334 333 333 333 332 336 339 340 340 340 340 340 339 339 338 338 337 336 337 336 334 334 334 335 334 331 331 332 331 332 332 331 331 330 328 325 321 321 321 321 326 327 324 324 324 322 321 320 322 326 329 330 331 331 331 331 330 328 327 327 327 327 327 329 330 329 329 329 326 326 326 323 323 321 316 317
339 340 339 339 339 338 338 337 336 336 333 332 332 333 336 338 338 338 337 337 339 339 339 338 338 337 337 337 336 335 335 334 335 333 331 331 331 331 331 331 331 332 331 329 325 322 322 322 320 323 325 325 324 323 321 320 319 320 324 328 330 331 331 331 331 330 329 327 327 327 327 327 327 329 330 329 329 326 325 325 323 323 322 318 317
339 340 339 340 339 339 339 338 337 336 335 333 332 333 336 336 335 335 334 335 336 338 338 338 337 338 337 337 336 335 335 334 334 332 331 331 331 331 331 331 331 332 331 329 324 322 323 323 320 322 324 324 323 322 321 320 320 318 321 327 329 329 330 330 330 329 328 327 326 327 327 327 327 328 330 329 329 326 323 323 322 323 321 318 316
339 339 340 339 340 341 340 339 339 338 337 336 334 333 335 336 335 334 334 334 335 335 337 337 336 337 336 337 336 334 335 334 333 332 332 332 332 332 332 331 331 331 330 327 324 323 324 324 321 322 324 323 322 321 323 324 323 319 319 325 329 329 329 329 329 328 328 327 327 327 327 327 327 327 329 329 329 327 324 324 323 322 320 316 314
339 339 340 340 341 340 339 339 338 338 337 337 338 336 335 335 334 334 334 334 335 334 334 335 335 336 335 336 335 335 335 333 332 332 332 333 333 333 333 332 331 330 329 325 323 324 323 323 322 322 322 321 321 323 325 326 326 322 320 324 328 329 329 329 328 328 327 327 327 327 327 327 326 327 327 328 329 329 326 325 324 323 321 318 316
339 339 340 340 340 338 338 337 336 337 337 336 338 338 337 336 334 334 334 333 334 334 333 332 333 335 335 335 335 334 334 333 332 333 334 334 334 334 333 332 332 329 328 325 323 324 323 322 321 320 321 321 323 325 325 326 326 325 324 326 328 328 328 329 329 328 327 326 327 327 327 327 327 326 326 326 328 329 328 327 326 325 324 321 319
338 339 339 338 338 337 336 335 336 337 336 335 337 338 338 337 336 336 335 334 334 334 334 333 332 334 335 335 335 334 335 334 334 335 335 336 335 335 333 333 332 328 327 326 324 324 324 323 320 318 321 322 324 325 326 326 326 327 326 327 328 328 328 328 329 329 328 327 327 328 327 327 327 326 325 325 326 327 328 328 328 326 325 325 322
337 338 337 337 337 336 334 334 335 335 333 333 333 335 337 337 337 336 336 336 335 334 334 334 335 334 334 334 335 335 335 335 335 335 335 335 335 335 333 333 334 330 326 327 326 323 323 324 323 321 322 323 325 325 325 326 327 328 329 329 328 328 329 328 329 329 328 327 328 328 328 327 327 327 325 325 325 325 327 328 329 328 326 326 323
332 333 334 334 334 332 332 333 333 331 329 329 329 330 333 335 335 335 336 335 335 334 333 334 335 335 335 335 335 335 335 335 334 334 334 334 334 333 333 333 334 332 328 327 329 326 323 323 324 324 323 324 324 325 327 328 329 330 330 330 329 329 329 329 329 329 329 328 328 328 328 328 327 327 326 325 324 324 325 327 328 328 327 326 323
325 327 328 327 328 328 329 329 329 327 326 326 326 326 327 329 328 329 330 330 332 333 333 333 333 333 334 334 334 334 334 332 332 332 332 333 332 332 332 332 333 333 329 328 331 331 328 326 327 328 326 325 326 328 330 330 330 330 330 330 330 329 329 329 329 329 329 328 328 328 328 328 328 327 327 325 325 324 324 326 326 327 327 326 324
321 321 322 322 322 325 327 327 327 326 325 324 324 323 324 324 323 323 324 323 325 328 331 332 329 328 328 329 331 331 331 331 331 331 331 331 331 331 332 333 333 333 332 329 330 332 332 330 330 331 330 330 330 330 331 331 330 331 331 331 330 330 329 328 329 329 329 328 328 328 328 328 328 327 327 326 325 325 325 325 326 327 327 327 325
319 319 319 319 319 322 325 326 326 325 324 323 323 322 323 323 323 323 322 321 321 323 327 328 326 324 324 324 326 328 327 328 328 328 330 331 330 331 332 331 332 333 333 331 330 332 333 331 330 331 331 330 330 331 331 331 331 331 331 331 330 330 330 328 329 329 329 329 328 328 328 328 328 328 327 327 326 325 326 325 325 326 327 327 326
318 318 318 318 317 320 325 326 325 324 323 323 322 322 322 322 322 323 323 322 321 321 323 325 326 325 325 324 325 325 324 324 325 326 327 329 329 330 330 330 332 333 331 330 330 331 332 332 331 331 330 329 329 329 330 331 332 332 331 331 330 329 328 328 328 329 329 329 328 328 328 328 328 328 328 328 328 327 326 326 326 326 326 326 325
318 317 317 317 317 320 324 324 325 325 323 322 322 321 319 319 320 323 323 320 319 321 323 326 327 326 325 324 325 326 325 326 327 326 326 327 327 327 327 327 330 332 330 329 329 330 332 332 332 332 330 330 329 328 329 330 330 332 331 330 329 328 327 327 328 329 329 329 329 328 328 329 329 329 328 328 329 328 328 327 326 325 326 326 325
317 317 317 317 317 319 321 321 323 325 322 321 319 319 318 319 321 321 320 319 319 321 323 325 326 324 323 322 323 324 325 326 326 326 325 325 325 326 324 323 325 329 330 329 329 330 330 331 332 332 331 331 331 330 330 329 329 331 332 330 328 327 326 327 327 328 328 328 328 328 328 329 329 329 329 329 329 329 328 328 327 326 326 325 325
317 317 317 317 317 318 319 319 321 323 321 318 317 318 319 320 320 320 319 320 321 321 323 325 324 323 322 322 321 321 322 323 323 323 324 325 325 326 325 323 324 326 327 328 329 329 329 329 330 331 330 330 331 331 331 330 330 331 331 331 329 327 326 325 326 327 327 327 327 327 327 327 328 329 329 329 329 329 329 329 328 328 327 325 326
317 317 317 317 317 318 318 319 320 320 317 316 317 317 318 319 318 318 319 321 322 322 323 324 323 322 321 321 320 319 319 319 320 319 321 323 323 325 325 325 325 325 325 326 327 328 328 328 329 329 330 330 330 331 331 330 329 329 330 331 330 329 327 326 326 325 325 326 325 325 325 326 327 328 330 330 329 330 329 330 329 329 328 327 326
316 317 317 317 317 317 317 318 317 316 315 315 316 316 316 316 316 317 318 320 322 322 323 322 321 321 321 320 318 318 317 317 318 318 319 321 322 324 325 325 325 325 324 324 325 326 327 327 327 327 327 328 329 328 329 329 329 328 327 328 330 331 329 329 328 328 327 325 325 324 325 325 327 328 330 330 330 330 330 330 330 329 329 329 327
316 316 316 316 316 316 316 316 315 314 314 314 315 316 316 314 313 315 316 318 320 320 319 318 318 319 320 318 318 318 317 317 318 317 318 320 322 323 324 323 323 323 322 322 323 325 325 326 326 327 326 326 326 326 327 328 328 328 327 328 330 332 332 330 328 329 329 329 327 326 326 325 326 327 329 331 330 329 329 330 330 330 330 330 329
316 315 315 315 314 315 316 315 315 314 313 314 315 315 315 314 313 314 315 315 316 316 314 313 314 317 317 318 319 317 316 317 317 318 318 320 321 322 322 322 321 321 321 321 321 322 322 322 323 325 326 326 326 327 327 326 327 328 328 329 328 329 332 330 327 328 328 328 328 327 327 326 327 329 330 331 330 329 329 329 330 330 330 330 330
315 315 315 314 312 312 315 316 314 314 313 314 314 314 316 315 314 315 315 314 315 316 314 312 313 316 317 318 317 313 313 316 317 318 319 320 321 321 321 321 321 321 320 321 320 320 320 320 320 321 323 325 327 327 326 326 327 327 327 328 328 328 331 328 327 329 328 327 327 326 326 326 327 328 329 329 328 328 328 328 329 329 329 329 329
315 315 314 314 310 309 313 315 314 313 313 314 314 315 316 316 314 314 314 313 314 315 312 310 312 314 316 317 313 310 313 316 317 318 318 319 319 319 319 319 320 320 319 319 319 319 319 319 318 319 320 322 324 324 324 325 327 327 326 328 328 329 330 328 329 331 329 327 328 327 327 326 326 326 326 326 326 326 326 326 327 327 328 328 328
315 315 315 313 308 307 310 313 314 313 314 315 316 315 316 316 314 312 312 311 310 310 309 309 311 313 316 316 312 311 314 314 315 317 317 317 318 317 317 318 318 318 318 319 318 318 318 317 317 318 318 319 321 321 321 323 324 324 325 326 326 327 327 328 329 330 330 329 328 328 328 328 328 328 327 327 326 326 325 325 325 325 325 326 326
315 315 315 313 308 306 308 311 313 314 314 316 317 316 315 316 314 311 311 310 309 309 308 310 311 312 315 316 312 311 313 313 313 314 315 316 315 314 314 315 315 316 316 315 315 315 315 315 315 315 315 316 317 317 318 319 320 320 321 322 323 324 325 326 327 328 329 330 328 327 327 327 327 327 328 328 327 327 327 326 326 325 325 325 325
315 315 315 313 308 306 308 310 314 315 315 316 317 317 315 314 313 312 311 311 310 310 308 309 309 310 313 315 312 311 313 313 312 312 312 312 310 308 308 308 309 310 310 310 310 310 310 311 311 310 311 311 312 313 314 316 316 317 318 319 320 321 323 325 325 325 327 328 327 326 326 326 325 326 326 326 326 326 327 327 327 327 327 327 326
315 315 315 313 309 307 309 311 314 315 316 316 317 317 315 312 312 312 311 311 311 311 309 308 309 309 311 312 311 310 312 312 312 311 309 309 308 307 306 306 307 307 307 307 307 307 307 308 308 308 308 307 307 308 310 311 313 314 316 317 318 319 321 323 322 322 323 326 326 325 326 326 326 326 325 325 325 326 326 326 326 327 328 328 328
315 315 315 313 309 308 310 312 313 315 316 316 317 317 315 313 312 312 311 311 312 312 310 309 309 309 308 308 308 309 310 310 310 310 310 309 309 309 309 308 309 308 308 309 308 307 307 307 307 307 306 307 307 306 307 308 309 310 312 313 315 315 317 318 319 319 320 322 323 323 324 325 325 325 325 324 324 324 324 324 325 326 327 327 327
Wind_Speed
17 16 16 15 15 16 16 17 17 16 17 18 19 19 19 19 19 19 19 20 20 20 19 20 21 22 22 22 22 22 22 21 20 19 19 18 19 18 17 16 17 17 17 16 15 15 15 15 14 13 12 13 14 15 16 18 19 20 19 19 19 20 20 21 21 22 23 22 21 20 19 18 18 17 16 17 17 17 17 18 18 17 17 16 16
20 17 16 16 16 16 17 17 17 16 17 17 18 19 19 19 19 19 19 19 19 19 19 20 21 22 22 23 22 22 22 21 20 19 18 18 18 17 16 14 14 15 16 16 15 15 14 14 14 13 12 12 13 14 15 18 20 20 19 18 18 19 21 20 20 21 21 21 20 19 19 18 18 17 16 16 16 17 16 16 17 17 16 15 16
21 18 16 17 16 16 17 17 17 17 17 17 18 19 19 19 19 18 18 19 19 20 19 20 22 22 22 23 22 22 21 21 20 19 18 17 17 16 15 14 13 13 14 15 14 14 14 14 14 13 13 12 13 13 15 18 19 20 20 18 18 19 20 20 20 19 18 18 19 20 20 19 18 17 16 16 16 16 16 15 15 15 14 14 14
21 19 16 16 16 15 16 18 18 17 17 17 17 18 19 19 19 18 18 19 19 20 19 20 22 22 22 22 22 21 20 20 19 18 18 17 16 16 16 15 14 13 12 13 13 14 14 15 15 14 14 13 12 13 15 17 18 19 20 18 19 20 20 20 19 18 17 18 19 21 21 19 18 17 16 16 16 15 15 15 14 14 13 13 13
22 18 16 16 16 16 16 18 19 18 17 17 17 17 18 19 19 18 18 18 18 19 19 19 20 21 21 21 20 20 19 19 19 18 17 16 15 15 15 15 15 14 12 12 13 13 15 15 15 15 15 14 13 13 14 15 17 19 19 18 18 18 17 18 18 18 18 20 21 21 21 20 19 17 16 16 15 15 15 15 15 14 14 13 13
21 18 16 16 16 16 16 18 19 18 17 17 17 16 18 18 19 18 18 18 18 18 18 18 18 19 19 19 19 18 18 18 18 17 17 16 15 14 14 14 15 14 13 13 13 13 15 15 15 15 15 15 14 13 14 15 16 18 17 18 17 16 16 16 17 17 19 21 20 20 21 20 19 17 15 15 15 14 14 14 14 14 13 13 13
20 18 16 16 16 15 15 17 18 18 18 17 17 16 17 18 18 18 18 17 17 17 17 17 17 17 17 18 18 18 17 17 17 16 16 16 15 14 13 14 14 14 13 13 14 15 15 15 15 15 16 16 14 14 14 15 17 17 16 16 16 16 16 16 16 16 18 20 19 20 20 17 17 17 15 15 14 13 14 14 13 13 12 13 14
19 17 16 16 15 15 16 16 17 18 18 17 17 15 16 17 18 17 17 17 17 16 16 17 17 16 16 16 17 18 17 17 16 15 15 15 14 14 13 12 13 14 13 12 14 15 15 15 15 16 17 16 15 15 14 16 17 17 17 16 15 14 14 15 15 15 17 19 20 20 18 16 17 17 15 14 13 13 13 12 12 12 12 13 13
18 16 15 15 15 15 16 16 17 18 18 17 17 16 15 17 18 17 17 16 16 16 16 16 16 16 16 16 16 16 16 16 16 15 14 14 14 14 13 12 12 14 13 12 13 15 15 15 16 17 17 16 16 16 16 18 19 18 17 16 14 14 14 14 15 15 16 19 19 19 18 17 17 15 13 13 12 12 12 11 11 11 11 13 13
18 16 15 15 15 15 16 17 17 18 18 18 17 16 15 16 17 17 16 16 16 16 16 15 15 15 15 15 15 14 15 15 16 16 15 15 15 13 13 12 12 14 14 13 13 14 15 16 17 17 17 17 17 17 18 19 19 17 16 15 13 14 15 15 15 15 16 18 19 18 17 17 16 14 13 12 12 11 11 10 10 11 12 12 12
17 16 14 14 15 14 16 17 16 17 17 18 17 17 16 15 16 17 16 16 15 15 15 15 15 14 13 14 14 14 14 14 15 16 15 15 15 13 12 12 12 14 14 14 14 14 16 18 17 16 17 17 16 17 18 18 17 15 14 12 10 11 13 14 14 15 15 16 17 17 17 16 14 13 11 11 11 11 10 10 10 11 11 11 11
16 15 14 14 14 15 16 16 16 16 16 17 17 17 16 15 16 16 16 16 15 14 14 14 14 14 13 13 13 13 13 14 15 15 15 15 15 13 13 12 13 14 14 13 14 15 16 18 17 16 16 16 16 17 18 17 15 12 11 10 8 8 10 13 13 14 15 14 14 15 15 13 12 11 10 10 11 10 10 10 10 10 10 10 11
16 15 15 14 14 15 16 16 15 15 15 15 16 16 16 16 16 16 17 16 15 14 14 13 13 13 13 13 13 12 12 13 14 14 14 14 14 12 12 12 13 14 14 13 14 16 17 18 16 15 15 16 18 18 16 14 12 9 7 7 8 8 9 11 12 13 14 12 11 12 12 11 12 11 9 11 11 10 9 10 9 9 10 10 10
17 15 15 14 15 15 15 15 15 15 14 14 14 15 15 15 16 16 17 17 16 14 14 13 13 13 12 13 13 12 11 12 13 13 13 13 12 11 11 11 12 14 15 14 14 16 17 17 17 15 16 17 18 16 13 11 9 6 5 5 8 10 10 10 11 12 12 11 10 10 10 11 11 9 10 11 10 9 8 9 9 9 9 9 10
17 16 16 15 16 15 14 14 14 14 14 14 14 14 15 15 15 16 17 17 16 15 14 13 13 12 12 12 13 13 12 11 12 12 13 12 12 12 11 11 10 12 15 15 15 16 17 18 18 17 16 17 15 14 11 9 7 4 4 4 7 12 11 9 9 10 10 10 9 9 9 10 10 10 10 10 8 8 7 8 9 8 9 9 9
18 17 16 16 16 14 13 12 12 13 13 13 14 14 15 15 15 15 17 17 16 15 14 13 13 12 11 12 12 13 13 12 11 11 12 12 12 12 12 11 10 11 13 15 15 15 17 18 18 17 16 15 14 12 10 8 6 3 3 4 6 12 13 9 9 8 8 9 9 9 9 9 10 10 9 8 7 7 8 8 8 8 8 8 9
16 17 16 16 16 14 13 11 11 11 11 11 12 14 15 14 15 15 16 17 16 15 14 13 13 12 11 11 12 13 13 12 11 11 11 11 11 11 11 11 10 10 11 13 14 14 15 16 17 17 16 14 14 12 9 7 5 2 3 4 5 11 14 10 8 8 8 8 8 8 7 8 10 10 8 8 7 6 7 7 7 8 7 8 9
16 16 16 17 15 13 12 11 11 10 10 11 11 12 13 14 14 15 16 16 16 15 14 13 12 12 11 11 12 12 12 12 11 11 11 11 10 10 11 10 10 9 9 11 13 13 13 14 15 15 15 14 13 12 10 8 4 2 3 5 6 9 13 11 9 8 7 7 7 7 7 8 10 9 8 8 6 6 7 7 7 7 7 7 8
16 16 16 17 15 13 12 11 10 10 10 11 11 11 12 13 13 14 16 16 16 15 14 13 11 11 12 12 12 12 11 11 11 11 10 10 9 10 10 10 9 8 8 9 11 13 13 12 12 13 14 13 13 13 11 9 4 2 3 5 7 10 12 11 9 8 7 7 7 6 7 8 8 9 8 6 6 7 7 6 6 7 6 7 8
15 17 17 17 15 13 12 10 9 9 10 11 12 12 12 11 12 13 15 15 15 14 14 12 11 12 12 12 12 11 11 11 11 10 10 9 9 9 10 9 9 8 8 8 10 12 13 12 11 11 12 12 12 13 12 9 5 2 3 5 9 11 12 12 9 8 7 7 6 6 6 7 8 8 6 5 7 7 6 6 6 6 6 7 7
14 17 17 17 16 14 12 10 10 10 9 10 12 12 11 11 12 12 13 14 15 15 14 13 12 13 12 13 12 11 11 11 11 10 10 9 9 9 10 10 9 8 8 8 8 10 12 12 11 10 11 11 11 13 12 10 5 3 3 5 11 13 12 12 10 8 7 6 6 5 6 6 7 7 5 6 6 5 4 5 6 5 6 6 7
17 18 17 16 15 14 13 11 11 11 10 10 12 12 11 11 12 12 13 13 13 14 14 14 13 13 13 13 13 11 11 11 11 11 10 10 9 9 10 10 9 9 8 8 8 9 10 12 12 11 10 10 10 12 12 10 6 4 3 5 10 13 13 12 10 8 6 6 5 5 5 6 7 6 5 6 5 4 4 5 4 5 6 6 6
18 18 17 16 14 13 12 12 11 11 10 10 11 11 11 11 11 12 13 13 13 13 14 14 14 13 13 14 13 11 10 10 11 11 10 10 10 10 10 10 10 9 9 9 8 9 9 10 12 12 11 10 9 10 11 10 8 5 4 6 10 13 13 12 10 8 6 5 5 5 5 6 6 5 4 5 5 5 5 4 4 4 5 5 6
17 18 17 15 13 12 12 11 11 11 10 9 9 10 10 11 11 11 11 12 13 13 13 14 13 13 13 13 12 10 10 10 10 11 10 11 11 11 10 10 10 10 10 10 10 10 10 11 12 13 12 11 9 8 9 10 9 7 5 6 10 12 12 12 11 8 7 5 4 4 4 5 5 4 4 5 6 4 5 4 3 4 4 5 5
17 16 15 14 13 12 11 11 11 10 10 9 9 8 9 11 11 10 10 11 12 12 13 14 14 13 12 12 11 10 10 10 10 11 11 11 11 11 11 11 11 11 12 11 11 11 12 13 13 13 13 12 10 7 7 9 10 9 6 6 10 12 12 12 11 9 7 5 4 4 4 4 5 5 4 6 5 3 6 5 4 4 3 3 4
16 15 15 14 13 12 11 11 10 9 9 9 8 8 9 11 11 11 11 11 12 13 13 14 14 14 13 13 12 11 11 11 11 11 11 12 11 11 12 12 13 13 13 11 11 12 14 14 14 14 13 13 11 7 6 7 10 10 8 6 8 12 12 12 11 9 8 6 5 4 4 4 4 5 5 6 6 4 5 5 4 4 3 2 4
16 15 15 14 13 12 11 10 10 10 9 8 8 9 10 11 11 11 11 11 11 12 13 14 14 14 14 14 13 12 12 12 12 11 12 12 12 13 13 13 13 14 13 11 11 12 13 15 15 15 14 12 10 7 6 7 9 11 10 8 7 10 12 12 11 10 9 6 6 5 4 4 3 4 5 7 7 4 4 4 4 4 3 2 2
17 16 16 15 14 12 11 11 10 9 8 8 9 9 10 11 10 10 11 11 11 11 12 13 14 14 13 13 13 13 13 12 12 12 13 12 13 14 14 14 14 14 12 11 11 11 12 14 15 15 13 12 10 8 6 6 8 11 11 10 8 8 10 11 11 10 9 8 7 6 5 4 4 4 5 7 7 5 3 3 4 4 4 4 2
19 19 17 16 15 13 12 11 10 9 8 8 8 9 10 11 11 10 11 11 11 11 11 12 13 13 13 12 13 13 13 14 14 13 13 13 14 15 15 14 14 14 13 11 11 10 11 14 15 14 12 10 9 8 6 5 6 9 11 11 9 8 8 8 9 10 10 9 8 7 6 5 4 5 5 6 8 6 4 4 3 3 3 3 2
21 20 19 17 16 14 13 12 11 10 9 8 8 9 10 11 11 11 11 10 10 10 10 11 12 12 12 13 13 14 14 14 15 15 15 15 16 18 17 16 15 14 14 12 11 10 10 11 12 13 12 10 9 7 6 5 5 7 9 11 10 9 8 8 8 10 11 10 9 8 7 6 6 6 5 5 7 7 6 5 4 3 3 3 2
22 21 20 18 17 15 14 12 11 10 10 9 9 9 10 10 10 11 11 10 10 11 11 10 10 10 11 12 13 14 15 14 15 15 17 18 19 19 17 16 17 15 14 13 10 9 10 10 9 11 11 10 8 7 6 5 5 6 7 9 10 10 10 9 9 9 11 11 11 10 9 8 7 7 7 6 6 7 6 6 5 5 4 4 4
23 22 21 19 18 17 15 14 13 12 11 10 9 9 9 9 9 10 10 10 11 11 11 10 9 10 11 12 14 15 15 15 16 16 18 18 18 17 14 14 16 16 15 13 11 10 10 10 9 10 10 9 9 8 8 8 7 7 7 8 10 11 11 11 11 11 12 13 12 12 11 10 9 8 8 7 7 7 7 7 7 6 6 5 4
23 22 21 20 19 18 17 15 15 13 12 11 10 9 8 8 7 8 7 7 8 9 11 12 12 12 13 14 15 16 16 16 16 16 18 18 16 14 12 13 13 16 16 13 11 11 11 11 11 10 10 10 10 9 9 10 9 8 8 9 11 13 13 13 13 12 13 14 13 13 12 12 11 10 10 9 8 8 8 8 8 7 7 6 5
23 22 22 20 19 18 17 16 15 14 13 12 11 10 9 8 6 5 4 4 6 8 9 9 9 10 12 14 14 14 14 14 12 13 16 15 13 12 12 13 13 14 16 14 13 13 12 12 10 10 10 10 11 10 10 11 11 11 10 10 12 14 15 15 15 14 14 14 15 14 14 14 13 12 11 11 10 10 9 9 8 8 7 7 6
24 23 21 20 19 18 17 16 16 15 15 14 12 11 11 10 8 6 4 3 4 6 6 5 3 4 7 9 11 11 9 7 6 8 11 10 9 11 13 13 13 13 14 15 14 14 14 11 10 9 8 9 10 10 10 11 12 13 13 12 14 15 16 18 17 16 15 15 16 15 15 15 15 14 13 13 12 11 11 10 9 9 9 8 7
24 22 21 19 18 17 17 17 17 17 16 14 13 12 12 11 8 6 5 5 5 4 4 3 2 1 1 2 6 10 10 7 6 8 7 6 8 10 11 9 9 11 14 19 19 17 14 12 13 12 10 10 9 9 8 9 12 14 15 14 15 16 18 19 19 18 17 17 17 16 16 16 15 15 14 14 14 13 12 12 11 11 11 10 9
23 22 21 20 18 18 18 18 18 17 16 15 14 12 11 9 8 7 6 6 5 6 6 5 3 2 2 4 1 3 6 7 6 6 5 4 7 6 6 6 6 8 10 13 15 14 13 13 15 14 14 14 13 11 9 8 9 11 14 14 14 16 19 20 21 20 18 17 18 17 17 16 16 16 15 15 15 14 14 13 13 12 12 11 10
23 22 21 20 19 19 18 18 18 18 16 15 14 12 10 8 8 8 6 5 5 6 7 6 4 3 3 5 4 3 1 1 1 2 1 4 7 4 2 2 5 7 5 4 6 10 14 15 14 14 14 13 14 14 12 11 11 9 9 11 12 14 17 20 21 21 19 18 18 17 16 16 17 17 16 16 16 16 15 14 14 15 14 13 12
24 22 21 20 19 19 19 18 19 19 18 16 14 12 10 9 10 8 6 5 5 7 7 5 4 2 2 3 3 4 2 1 2 2 1 2 4 4 2 3 4 4 4 5 5 7 10 12 14 15 14 11 11 12 12 13 13 9 9 9 9 12 15 18 20 21 21 20 19 18 17 17 17 18 17 17 17 17 17 16 16 16 16 15 14
24 23 22 21 20 21 21 20 20 20 19 17 15 13 12 12 11 9 7 7 7 8 7 5 3 2 0 1 1 2 1 0 1 1 2 2 5 7 4 2 2 0 3 3 3 3 3 7 12 14 14 13 11 11 11 12 13 13 9 7 7 11 14 17 19 22 22 21 21 20 19 19 19 19 19 18 18 18 18 17 18 18 17 17 16
24 25 24 22 22 22 22 22 22 21 20 19 16 15 14 13 12 10 9 9 8 8 7 6 4 2 1 1 1 2 1 1 1 1 1 3 5 8 7 6 7 7 6 5 3 2 0 4 7 8 9 11 10 10 10 10 10 10 9 6 6 8 12 14 16 18 20 21 20 20 20 20 20 21 21 20 19 19 19 19 19 19 19 18 18
26 26 25 24 23 22 23 23 23 21 19 19 18 16 14 13 12 11 10 9 9 7 7 6 4 3 2 1 2 3 2 2 1 1 2 3 6 8 9 10 12 13 12 11 8 4 3 2 2 2 2 4 3 3 5 6 5 3 4 6 6 6 8 11 13 15 16 17 19 20 20 20 21 22 22 22 21 21 20 20 20 20 20 20 20
27 27 26 25 24 23 24 24 23 22 20 20 18 16 15 12 11 10 10 10 9 7 6 5 4 4 3 2 2 2 2 3 3 3 3 4 6 8 10 11 12 13 13 13 11 9 8 8 8 8 6 6 6 3 2 1 4 4 2 2 3 3 3 5 7 11 14 16 18 19 20 21 22 23 24 24 23 22 21 21 21 21 22 22 22
25 27 26 26 25 25 25 25 24 22 21 21 19 18 16 14 11 11 10 9 9 8 6 5 5 4 3 2 0 1 2 1 3 4 4 5 6 7 8 8 10 10 10 11 11 10 10 11 12 10 8 10 10 8 6 3 3 5 3 1 1 1 1 2 6 8 9 12 15 18 20 22 23 23 24 25 24 23 23 23 22 22 22 23 23
26 29 29 28 26 27 27 26 25 24 23 23 21 19 18 16 14 14 11 10 10 9 7 6 6 5 4 2 0 2 1 2 3 4 4 5 6 7 7 6 7 7 7 8 9 9 9 11 13 11 10 10 10 9 9 8 6 4 4 2 0 1 1 2 6 6 5 7 9 11 14 18 21 22 23 23 23 23 23 23 23 23 23 23 23
28 30 30 28 26 27 28 27 26 26 25 24 22 21 19 18 18 18 15 13 13 12 10 9 7 5 4 3 1 3 4 4 4 4 4 4 5 5 6 5 5 5 6 7 7 8 8 9 10 10 11 10 9 10 10 9 9 8 5 4 2 1 1 1 2 2 6 11 7 5 7 10 11 13 15 17 18 19 21 22 23 23 23 23 23
28 29 30 29 28 28 29 29 29 28 27 25 23 21 20 20 20 19 17 15 15 14 11 10 7 6 5 4 3 5 6 5 4 4 3 2 2 3 4 4 4 4 5 5 7 8 8 10 9 9 9 9 8 10 10 8 7 8 7 4 3 2 1 2 1 1 4 7 7 10 11 8 7 8 9 10 11 13 15 16 19 20 22 23 24
28 29 31 31 30 30 30 30 31 30 28 26 24 22 22 23 22 20 18 15 14 13 12 11 9 7 6 5 5 5 6 5 5 4 4 3 2 3 4 5 6 6 5 6 8 8 8 9 10 10 9 8 8 9 9 7 6 7 6 4 4 3 2 3 2 2 2 2 6 11 12 11 12 12 9 8 9 10 12 13 14 15 16 19 21
28 31 33 32 31 31 31 31 32 32 30 28 25 23 22 23 23 22 19 15 12 11 12 12 10 9 7 6 6 6 6 5 5 6 6 7 6 7 7 8 9 9 8 9 9 9 9 9 10 11 10 9 9 7 7 8 7 7 5 5 5 4 4 4 5 5 2 3 3 4 9 14 15 14 12 12 13 13 13 14 14 15 15 16 18
27 29 31 32 32 33 33 33 33 32 31 29 27 24 23 24 24 23 20 16 14 13 13 12 11 10 9 8 7 7 7 6 6 6 7 7 7 7 7 9 9 10 9 9 9 10 10 10 10 11 10 10 9 8 8 8 7 6 6 6 6 6 5 4 6 8 4 3 3 3 7 10 11 15 17 16 16 16 15 16 15 16 16 17 17
25 27 30 32 34 34 34 35 34 33 32 30 28 26 25 25 25 24 21 18 16 16 15 14 13 12 11 10 9 9 9 8 7 6 6 5 5 4 5 6 7 8 9 9 10 11 10 10 10 11 11 11 11 9 8 8 7 7 7 7 7 7 5 3 5 7 5 4 4 4 6 8 8 13 16 16 16 16 15 16 15 15 15 17 17
Wind_Direction
171 165 164 158 157 156 150 143 140 140 139 138 136 132 129 127 125 124 123 120 117 116 119 122 124 127 129 130 132 134 134 134 130 126 123 120 120 121 121 122 125 127 127 128 130 129 128 126 125 125 127 127 125 127 124 125 123 120 121 122 122 120 120 118 116 116 115 115 116 117 114 110 106 105 104 101 101 100 98 95 93 91 86 84 82
167 163 164 158 157 156 152 145 140 140 138 139 138 135 130 128 127 126 126 123 119 118 121 123 124 128 130 131 132 130 127 125 121 119 119 118 119 121 122 122 125 130 133 134 135 134 132 128 129 128 128 128 127 127 127 129 128 126 127 123 123 126 127 124 119 116 118 121 122 120 112 108 105 103 102 101 99 98 96 93 94 95 90 87 85
161 160 162 156 156 157 153 147 142 140 140 140 139 137 133 131 130 129 128 125 121 120 123 124 126 127 127 129 128 126 123 122 120 120 120 121 123 124 124 123 123 127 132 136 138 136 132 129 129 128 128 130 131 129 131 135 133 133 130 124 126 130 130 126 121 120 123 123 119 117 113 109 108 107 104 102 100 97 95 93 93 93 90 89 87
157 156 156 154 154 157 154 148 144 143 142 142 141 139 136 134 132 132 130 128 125 124 126 127 128 127 125 127 127 125 124 123 122 122 123 124 125 125 125 124 124 123 127 134 137 136 132 130 131 131 132 133 135 133 134 137 136 137 135 132 133 131 130 129 127 126 127 122 118 118 116 112 109 107 105 103 102 99 96 94 92 89 88 87 86
154 153 152 151 151 155 156 151 148 145 145 144 142 140 139 137 134 134 132 130 128 126 127 129 131 130 128 127 127 127 125 125 125 124 124 125 125 125 125 125 126 125 124 130 133 134 133 132 134 134 135 135 137 136 136 137 138 141 140 136 135 133 131 129 132 132 128 123 122 120 115 113 110 108 107 106 103 99 97 96 96 93 89 87 86
152 150 148 149 149 154 158 154 150 148 146 144 142 143 142 139 138 137 134 133 130 127 128 130 131 131 130 129 128 128 128 129 128 127 126 126 127 128 130 132 132 129 125 130 132 133 133 133 136 137 136 137 139 139 137 137 140 143 142 140 137 137 135 132 136 136 130 128 126 120 116 117 115 112 109 106 104 101 100 99 97 94 92 91 88
151 148 145 147 147 151 158 155 152 150 147 144 144 146 145 142 141 139 137 135 132 129 128 130 132 132 131 131 131 131 132 133 133 133 130 130 131 132 133 135 135 130 124 128 131 130 131 133 137 137 136 137 139 139 136 138 142 142 140 143 142 141 141 139 140 139 135 131 124 118 118 119 116 112 108 107 106 104 102 98 97 95 95 94 90
148 146 145 146 145 148 155 156 154 151 148 147 146 147 148 145 144 142 140 138 137 133 130 132 133 134 133 132 135 136 137 138 139 136 134 133 132 132 130 129 131 128 124 126 129 129 130 133 136 137 137 137 139 138 135 136 139 138 136 140 144 143 144 143 142 140 135 130 124 120 120 116 112 112 113 112 108 106 103 99 99 98 96 96 94
146 143 142 144 144 147 151 156 155 151 150 149 148 150 150 149 148 145 144 142 141 138 134 133 135 136 136 135 137 139 141 143 143 139 138 135 132 132 129 125 125 129 128 125 128 130 132 135 136 138 137 137 140 137 133 134 134 134 132 133 138 138 138 139 140 137 131 128 127 124 118 114 111 113 116 113 108 106 108 107 104 100 94 94 95
142 139 140 143 143 146 149 154 156 153 152 152 152 152 153 152 151 149 148 147 146 143 137 134 136 137 138 139 139 140 142 146 147 145 145 139 134 133 131 125 123 132 133 128 129 132 136 136 140 144 140 140 143 139 136 134 132 130 125 123 126 133 136 136 136 132 126 125 126 122 118 119 119 117 117 114 109 106 106 105 102 99 96 94 94
139 138 138 143 143 145 147 151 155 154 153 154 155 154 155 154 153 153 152 152 150 148 142 137 138 138 140 142 143 143 145 149 150 151 150 144 137 135 135 130 124 133 137 133 133 136 138 139 146 151 143 143 148 144 142 138 133 129 122 119 118 127 138 140 136 131 126 125 127 126 129 131 125 121 121 117 111 106 103 100 97 98 97 95 93
136 137 139 144 143 143 146 149 153 156 156 155 156 156 157 155 155 155 156 156 153 153 147 140 140 140 142 145 147 147 147 151 154 154 153 146 140 140 140 134 125 131 138 138 139 142 145 148 152 153 146 147 152 149 145 142 140 136 133 135 135 131 138 143 138 134 133 132 133 135 139 134 121 123 124 116 112 109 107 104 98 97 96 93 92
133 138 144 145 140 142 145 147 152 156 158 157 158 159 161 161 160 159 160 161 156 156 153 146 144 143 144 146 149 150 150 153 155 154 152 147 143 143 141 135 128 131 139 140 142 147 153 156 155 152 151 154 156 155 152 149 148 150 160 166 165 157 144 146 143 140 142 139 137 139 139 129 120 126 122 116 115 112 110 105 99 97 95 92 91
136 142 145 143 138 141 144 146 151 155 159 162 162 163 166 166 165 165 164 164 161 158 156 151 149 148 147 149 153 154 154 155 154 152 151 149 145 145 142 138 134 135 143 144 144 150 155 157 157 155 156 158 161 163 163 162 163 171 199 200 180 174 158 149 150 145 144 141 138 137 132 128 128 125 117 119 121 117 113 104 100 98 93 93 94
141 143 143 143 137 139 144 147 153 154 158 164 166 165 169 170 168 170 168 166 164 160 159 157 154 154 153 154 157 157 156 156 155 154 153 153 149 147 144 143 142 140 145 149 148 152 158 158 159 160 160 162 165 168 169 173 179 188 221 209 177 177 168 150 151 148 143 141 139 136 131 132 130 122 119 126 128 121 113 104 102 97 96 96 93
145 143 143 142 138 143 147 148 152 153 156 162 169 167 169 171 169 173 171 167 166 163 162 161 159 158 158 158 161 160 158 160 160 159 157 156 154 150 148 148 149 147 148 152 153 157 163 164 163 164 167 170 171 172 177 182 183 186 224 210 176 177 175 154 145 146 142 140 140 138 136 133 124 124 130 129 128 122 111 108 105 97 98 97 91
144 143 144 142 144 150 150 146 144 147 152 156 167 168 168 170 168 174 173 166 165 165 164 163 162 161 160 161 164 164 164 165 165 164 163 160 157 154 154 155 155 155 153 155 159 164 169 171 169 169 173 177 180 181 183 180 174 183 215 208 184 178 179 164 144 139 138 139 138 138 137 132 127 131 136 130 130 123 110 109 105 98 98 97 93
144 145 147 147 148 150 150 146 142 142 146 149 161 167 169 171 167 172 174 168 167 168 166 166 165 164 163 163 165 169 170 171 170 169 167 166 163 160 159 159 158 159 160 160 163 170 176 175 173 173 175 179 185 185 182 172 167 194 204 203 191 182 183 174 155 141 135 136 137 137 133 131 133 137 144 147 143 123 111 110 106 102 100 98 96
146 147 149 150 152 153 151 147 145 140 140 143 151 160 164 170 167 170 175 170 170 169 167 169 166 165 167 165 167 171 176 178 176 176 174 172 170 167 165 163 161 160 165 166 166 172 179 181 175 173 173 173 179 182 178 171 170 196 196 197 191 187 188 184 171 154 144 136 134 134 129 132 135 141 155 160 141 127 125 124 117 108 101 99 99
149 151 151 153 155 156 156 149 145 138 136 138 142 149 155 164 167 172 176 172 173 171 168 171 169 169 171 168 169 172 180 183 179 180 180 178 178 175 173 169 167 166 168 171 169 173 180 187 182 174 170 165 172 179 177 173 177 203 194 189 190 191 190 190 184 167 155 142 136 133 129 133 136 142 154 148 143 146 144 134 127 120 110 104 102
153 152 153 155 156 158 157 151 145 139 137 135 136 142 148 158 164 172 178 175 174 173 169 173 174 173 174 171 173 175 181 186 184 186 185 183 185 184 182 180 175 172 174 175 175 177 181 189 189 178 172 169 172 178 178 177 181 206 195 182 191 192 187 189 190 178 166 152 143 134 129 133 135 142 147 147 159 170 152 139 138 132 119 111 107
157 154 155 157 156 157 155 153 148 144 142 138 138 143 152 158 163 174 180 177 176 177 174 176 179 177 174 172 174 179 185 190 188 190 190 189 189 188 189 189 185 182 182 182 183 188 186 188 191 183 178 181 180 178 179 182 184 205 204 179 187 191 187 186 188 182 172 160 148 135 131 131 134 145 149 153 168 169 151 152 156 135 120 120 118
160 158 158 158 158 158 156 156 152 150 149 144 146 153 160 161 168 181 181 180 182 184 181 179 181 179 177 174 177 183 188 195 194 193 196 194 194 191 193 195 195 194 190 189 189 196 197 192 194 190 186 190 190 178 177 183 187 200 211 182 180 187 188 185 185 186 177 163 148 135 133 134 141 153 154 154 159 159 158 165 169 143 132 133 125
165 162 161 159 160 162 160 160 157 158 156 153 158 161 166 166 173 185 186 188 189 190 189 186 183 181 179 177 183 189 193 202 201 198 201 202 204 198 196 199 202 202 198 197 193 195 203 203 200 196 191 193 195 186 175 181 184 192 213 191 178 183 188 187 187 188 182 171 150 135 133 138 149 160 158 161 165 165 160 162 158 148 151 149 132
169 164 162 160 162 166 165 166 165 164 163 166 169 168 171 171 175 182 188 191 191 193 195 194 188 184 182 182 190 199 200 204 206 205 205 208 211 206 202 203 205 206 204 203 199 195 199 204 206 200 196 196 196 194 180 179 182 187 204 197 182 183 187 190 191 192 190 182 161 146 139 142 154 163 165 169 179 177 161 169 166 160 179 163 142
170 166 164 162 165 169 171 172 172 172 174 180 175 171 177 178 180 183 188 190 187 191 194 195 193 189 188 189 196 205 206 205 209 209 209 210 211 208 207 206 205 209 209 208 205 202 201 201 206 204 200 202 201 202 190 180 183 185 193 198 188 187 189 190 192 195 196 190 178 168 155 155 163 167 171 175 181 180 174 193 200 184 202 178 150
167 167 165 164 169 170 172 172 174 177 183 190 183 181 184 185 187 187 191 190 184 184 186 191 195 194 196 196 200 210 210 209 212 212 213 211 211 210 207 208 208 212 214 212 211 208 205 202 206 208 206 209 209 207 192 176 181 187 191 193 186 189 194 194 192 197 201 198 193 187 175 178 183 176 177 180 185 194 203 220 223 205 211 220 180
163 165 165 167 168 165 167 167 169 174 179 193 197 196 191 189 192 192 194 192 186 184 183 188 196 199 201 202 206 215 215 216 219 218 218 216 216 213 207 209 211 216 216 212 215 213 208 205 206 209 210 214 211 201 193 179 180 185 190 191 183 183 194 198 196 200 205 206 205 199 190 191 198 191 183 185 191 202 220 222 226 228 242 264 261
162 163 165 166 165 163 164 165 166 166 171 185 199 204 199 197 200 199 198 195 190 190 188 192 199 203 205 207 212 218 220 224 226 223 223 224 226 219 212 212 211 218 220 212 215 212 206 206 207 209 211 214 207 197 198 193 188 189 191 193 192 186 189 200 204 205 209 211 213 210 203 200 202 203 196 190 194 201 215 216 214 223 247 266 285
162 162 165 166 166 165 165 169 168 167 173 177 189 202 203 207 210 207 204 199 194 197 201 204 204 204 207 212 217 221 224 228 229 227 227 228 230 224 218 217 211 216 223 216 215 213 204 204 206 207 208 210 206 205 210 207 202 200 197 198 205 206 202 207 212 212 213 213 214 216 214 209 205 206 210 200 196 202 206 212 216 212 228 234 268
164 164 167 168 168 169 170 173 173 174 177 177 184 198 203 210 217 217 211 205 203 204 209 214 210 207 213 219 223 226 227 232 234 235 234 235 236 228 219 216 209 210 224 222 214 215 209 203 202 202 205 207 209 219 231 236 229 227 223 216 220 223 220 219 222 221 219 218 216 219 220 217 212 209 215 214 206 207 204 207 216 216 219 222 256
167 168 169 170 170 171 172 174 175 176 178 180 183 188 196 206 219 229 222 213 215 215 213 215 212 209 215 221 226 228 230 236 240 242 242 242 240 232 227 230 216 205 220 227 218 218 215 211 211 210 214 220 230 241 253 266 261 254 252 241 236 233 231 229 230 228 222 221 219 221 224 224 220 213 216 221 218 218 213 207 207 213 218 216 246
166 168 170 171 171 172 171 173 173 174 177 178 178 177 184 197 213 229 230 223 225 224 217 216 215 210 213 219 224 228 231 236 240 246 247 246 247 244 245 253 236 211 216 228 227 222 218 219 223 222 226 233 245 255 266 272 268 263 258 253 246 237 238 238 236 235 228 223 221 223 226 229 228 221 219 222 224 227 225 218 212 215 220 229 264
164 166 169 170 171 172 171 171 171 171 170 167 166 162 165 175 183 190 202 214 217 220 222 226 228 223 225 227 230 233 237 243 251 254 252 251 254 252 242 245 244 223 215 223 232 232 224 221 229 234 235 239 249 261 270 272 275 276 268 261 254 246 247 244 239 240 235 228 226 227 229 232 234 230 226 225 225 230 231 230 227 227 226 238 272
165 165 168 169 170 171 172 172 171 169 163 161 160 156 156 158 157 156 162 162 176 202 216 227 234 235 243 245 245 249 254 271 292 282 268 265 263 253 239 234 238 232 221 219 223 228 223 222 235 242 243 246 255 265 272 277 283 283 279 273 261 254 252 245 241 242 240 235 231 232 234 235 238 237 235 232 230 231 233 233 232 237 237 239 261
168 168 169 170 170 172 175 174 170 166 161 160 161 159 158 156 157 157 151 132 123 146 175 196 189 193 237 260 252 253 260 279 304 309 305 288 263 252 246 237 228 227 228 223 215 213 213 219 233 239 248 255 258 265 271 284 293 288 285 282 268 258 253 246 240 239 242 242 238 238 239 238 241 242 243 240 237 235 235 236 233 237 243 246 259
173 173 173 173 173 174 177 174 168 166 163 163 164 164 162 161 166 164 155 135 122 128 138 148 131 116 84 65 47 269 270 276 284 297 322 293 269 264 258 248 222 220 233 227 216 216 215 218 229 236 248 257 260 262 263 278 299 301 290 281 268 257 251 246 242 240 243 245 243 244 246 245 244 244 246 246 244 242 240 240 237 236 242 248 254
175 176 176 176 176 174 174 172 170 169 167 166 168 170 170 171 169 164 159 143 138 143 140 139 121 101 73 63 62 61 25 305 311 288 308 279 288 334 345 255 234 241 269 261 222 224 222 223 232 237 247 257 260 260 259 265 283 312 309 285 265 252 250 249 246 244 246 245 244 247 251 252 251 248 247 248 248 246 244 243 241 238 241 246 248
176 176 176 177 175 170 169 168 171 170 168 170 172 174 175 174 166 161 165 154 149 153 152 151 133 114 63 61 68 71 86 104 76 57 31 295 321 19 15 277 250 254 303 296 253 236 229 232 239 239 243 249 251 251 253 260 271 298 326 310 271 250 249 251 249 249 248 246 245 247 251 253 254 253 250 251 251 250 247 246 244 242 243 246 247
178 177 177 178 175 169 167 166 168 169 168 171 170 169 168 167 165 163 161 151 149 156 161 163 147 148 125 62 66 60 46 306 33 24 51 48 42 51 44 310 277 24 10 321 291 292 251 237 239 240 241 241 243 244 248 259 270 281 302 321 291 253 247 251 253 250 248 246 246 249 251 252 254 255 253 253 253 252 251 249 247 247 246 247 248
179 180 180 179 177 172 169 165 166 170 171 170 166 165 166 164 164 164 158 149 151 161 164 166 162 164 155 86 47 40 24 329 324 338 61 67 57 62 63 59 69 77 75 78 64 20 298 216 225 237 238 238 247 248 250 257 265 278 285 297 302 264 246 249 250 249 247 247 247 249 250 251 253 254 254 254 254 254 253 252 251 250 250 249 248
182 183 183 181 178 175 172 167 167 172 174 173 169 171 173 170 169 167 162 153 154 165 169 170 176 173 154 90 46 37 30 37 37 13 39 62 63 71 73 70 75 78 80 82 83 78 68 88 131 124 188 215 247 258 261 251 230 245 276 283 300 281 247 244 246 247 248 248 247 247 248 250 252 253 253 253 254 255 255 255 255 254 254 252 250
186 185 185 181 178 178 176 171 170 173 175 176 176 177 176 176 177 170 165 158 157 166 173 173 174 168 151 105 58 33 18 33 52 45 45 61 69 79 82 76 74 75 76 78 81 85 73 62 72 81 90 95 91 79 23 245 197 175 180 267 303 311 266 253 260 257 255 253 250 248 250 252 253 254 253 253 255 256 257 257 257 257 257 256 255
190 186 184 181 179 182 181 176 173 174 176 177 179 181 177 177 177 168 166 163 159 162 160 157 157 155 150 138 82 341 343 37 70 66 62 68 78 87 86 78 74 71 69 73 74 75 69 61 66 77 84 91 98 93 75 78 156 171 162 202 348 9 302 341 328 292 266 260 255 253 254 255 256 254 251 253 257 260 261 260 260 260 260 259 258
194 189 185 182 183 185 185 181 177 176 177 176 179 182 179 177 173 168 168 162 156 160 162 163 165 161 154 147 4 348 25 129 109 93 84 81 86 90 87 79 73 66 61 66 70 68 63 58 58 65 73 87 103 97 82 79 86 122 141 152 178 281 229 5 342 307 297 308 289 270 264 260 259 258 256 257 261 264 264 264 263 263 262 261 260
198 192 187 185 186 187 186 184 180 178 179 179 183 188 188 185 177 173 174 170 167 173 179 177 173 172 164 148 95 65 94 130 132 116 101 92 87 84 86 85 77 67 64 69 72 64 59 58 55 57 63 73 90 88 79 82 87 89 101 127 149 257 250 333 344 287 316 318 313 326 319 298 282 274 271 271 271 272 271 270 268 268 267 265 263
199 193 188 188 189 187 186 186 184 181 182 184 189 194 197 196 189 184 183 182 182 183 182 176 171 174 172 157 129 97 98 116 130 131 123 108 87 70 72 81 80 71 63 65 67 62 57 59 56 56 60 59 68 76 72 77 86 77 77 95 96 81 332 321 297 246 313 305 295 313 326 336 332 316 305 299 296 293 287 280 277 274 273 272 269
198 193 189 190 191 188 186 187 185 184 185 188 195 200 202 202 198 194 192 191 191 183 174 171 174 179 180 172 154 127 110 105 105 111 117 113 96 80 76 82 88 81 67 62 63 62 58 56 54 55 57 54 55 67 69 65 63 59 61 65 65 67 43 21 2 302 278 282 301 307 314 325 322 316 319 319 316 314 307 301 295 288 283 280 276
196 194 191 191 192 189 188 189 187 187 189 192 198 203 207 207 202 200 199 197 197 187 175 173 177 182 186 183 173 158 139 121 106 99 101 99 92 90 86 81 81 78 70 64 59 54 49 44 44 44 47 54 54 56 63 62 56 49 41 35 38 37 38 47 33 7 322 279 302 308 315 321 316 309 311 314 314 314 312 309 306 303 297 292 288
197 195 192 192 193 191 190 191 190 191 192 196 200 204 208 210 206 204 205 202 199 194 185 183 185 188 192 193 188 175 160 147 132 115 107 103 96 91 85 74 70 66 62 57 46 36 32 32 35 37 41 49 50 48 56 62 61 54 43 35 32 27 29 38 21 11 356 297 305 314 314 321 316 307 308 313 314 311 306 305 303 303 302 298 294
194 195 195 195 196 195 193 193 194 194 196 199 202 205 207 211 211 210 210 208 202 198 195 193 194 197 197 195 195 187 173 163 155 145 135 125 113 99 80 66 56 49 48 46 37 31 33 35 37 38 41 45 47 46 51 54 53 54 49 45 46 45 43 34 11 2 355 330 325 324 316 320 313 301 307 318 317 311 309 307 302 300 303 302 298